• In Hungary
  • List of Countries
  • For 7 days
  • Water Temperature
  • Satellite Maps
  • Weather Map
  • News
  • Weather Widgets
  • user-avatar
    Login

    Hourly Weather Brecon

    Today, 17 January, Wednesday

    Time Temperature Precipitation Wind Pressure Humidity
    00:00 -2°C° 0.3 mm 12 mps 732 mmHg 71%
    01:00 -2°C° 0.2 mm 11 mps 733 mmHg 70%
    02:00 -2°C° 0.2 mm 11 mps 734 mmHg 70%
    03:00 -2°C° 0.2 mm 11 mps 734 mmHg 70%
    04:00 -2°C° 0.1 mm 11 mps 735 mmHg 71%
    05:00 -2°C° 0.1 mm 11 mps 736 mmHg 72%
    06:00 -2°C° 0.1 mm 11 mps 737 mmHg 73%
    07:00 -2°C° 0.1 mm 11 mps 738 mmHg 74%
    08:00 0°C° 0.1 mm 10 mps 739 mmHg 75%
    09:00 0°C° 0.1 mm 10 mps 740 mmHg 75%
    10:00 0°C° 0.1 mm 10 mps 740 mmHg 74%
    11:00 +1°C° 0.1 mm 10 mps 741 mmHg 73%
    12:00 +1°C° 0.1 mm 10 mps 741 mmHg 71%
    13:00 +1°C° 0.1 mm 10 mps 742 mmHg 72%
    14:00 +1°C° 0.1 mm 9 mps 742 mmHg 73%
    15:00 +1°C° 0.1 mm 9 mps 742 mmHg 74%
    16:00 +1°C° 0.1 mm 8 mps 742 mmHg 77%
    17:00 +1°C° 0.1 mm 8 mps 741 mmHg 80%
    18:00 0°C° 0.1 mm 7 mps 741 mmHg 83%
    19:00 +2°C° 0.9 mm 7 mps 740 mmHg 86%
    20:00 +1°C° 0.9 mm 8 mps 739 mmHg 89%
    21:00 +1°C° 0.9 mm 9 mps 737 mmHg 92%
    22:00 +3°C° 1.9 mm 10 mps 736 mmHg 91%
    23:00 +5°C° 1.9 mm 12 mps 734 mmHg 90%

    Tomorrow, 18 January, Thursday

    Time Temperature Precipitation Wind Pressure Humidity
    00:00 +8°C° 1.9 mm 14 mps 733 mmHg 90%
    01:00 +8°C° 0.3 mm 13 mps 732 mmHg 89%
    02:00 +8°C° 0.3 mm 13 mps 732 mmHg 87%
    03:00 +7°C° 0.3 mm 13 mps 732 mmHg 86%
    04:00 +7°C° 0.1 mm 12 mps 732 mmHg 85%
    05:00 +6°C° 0.1 mm 11 mps 733 mmHg 84%
    06:00 +5°C° 0.1 mm 10 mps 733 mmHg 82%
    07:00 +5°C° 0.1 mm 9 mps 733 mmHg 83%
    08:00 +4°C° 0.1 mm 8 mps 733 mmHg 83%
    09:00 +4°C° 0.1 mm 8 mps 734 mmHg 83%
    10:00 +3°C° 0.3 mm 9 mps 734 mmHg 81%
    11:00 +3°C° 0.3 mm 9 mps 734 mmHg 78%
    12:00 +3°C° 0.3 mm 10 mps 734 mmHg 76%
    13:00 +3°C° 0.2 mm 10 mps 735 mmHg 75%
    14:00 +2°C° 0.2 mm 10 mps 735 mmHg 74%
    15:00 +2°C° 0.2 mm 9 mps 735 mmHg 73%
    16:00 +1°C° 0.1 mm 9 mps 736 mmHg 74%
    17:00 0°C° 0.1 mm 8 mps 736 mmHg 76%
    18:00 0°C° 0.1 mm 7 mps 737 mmHg 78%
    19:00 -1°C° 0.1 mm 7 mps 738 mmHg 78%
    20:00 -1°C° 0.1 mm 7 mps 738 mmHg 78%
    21:00 -1°C° 0.1 mm 7 mps 738 mmHg 79%
    22:00 -1°C° 0.1 mm 6 mps 739 mmHg 79%
    23:00 -1°C° 0.1 mm 6 mps 739 mmHg 80%

    Day after tomorrow, 19 January, Friday

    Time Temperature Precipitation Wind Pressure Humidity
    00:00 -2°C° 0.1 mm 6 mps 739 mmHg 81%
    01:00 -2°C° 0.1 mm 6 mps 739 mmHg 80%
    02:00 -2°C° 0.1 mm 6 mps 739 mmHg 80%
    03:00 -2°C° 0.1 mm 6 mps 739 mmHg 79%
    04:00 -2°C° 0.1 mm 6 mps 739 mmHg 79%
    05:00 -2°C° 0.1 mm 6 mps 739 mmHg 79%
    06:00 -2°C° 0.1 mm 7 mps 739 mmHg 78%
    07:00 -2°C° 0.1 mm 7 mps 739 mmHg 78%
    08:00 -1°C° 0.1 mm 7 mps 739 mmHg 78%
    09:00 -1°C° 0.1 mm 7 mps 739 mmHg 77%
    10:00 -1°C° 0.2 mm 8 mps 739 mmHg 74%
    11:00 0°C° 0.2 mm 9 mps 739 mmHg 70%
    12:00 +1°C° 0.2 mm 9 mps 739 mmHg 67%
    13:00 0°C° 0.2 mm 9 mps 739 mmHg 67%
    14:00 0°C° 0.2 mm 9 mps 739 mmHg 68%
    15:00 0°C° 0.2 mm 9 mps 739 mmHg 69%
    16:00 -1°C° 0.1 mm 8 mps 740 mmHg 71%
    17:00 -1°C° 0.1 mm 8 mps 740 mmHg 73%
    18:00 -2°C° 0.1 mm 7 mps 741 mmHg 75%
    19:00 -2°C° 0 mm 7 mps 741 mmHg 75%
    20:00 -2°C° 0 mm 7 mps 741 mmHg 76%
    21:00 -2°C° 0 mm 7 mps 741 mmHg 76%
    22:00 -2°C° 0 mm 7 mps 741 mmHg 77%
    23:00 -2°C° 0 mm 6 mps 741 mmHg 77%

    20 January, Saturday

    Time Temperature Precipitation Wind Pressure Humidity
    00:00 -2°C° 0 mm 6 mps 742 mmHg 78%
    01:00 -1°C° 0 mm 5 mps 741 mmHg 79%
    02:00 -1°C° 0 mm 5 mps 741 mmHg 79%
    03:00 -1°C° 0 mm 4 mps 741 mmHg 80%
    04:00 -1°C° 0.1 mm 4 mps 741 mmHg 81%
    05:00 0°C° 0.1 mm 3 mps 740 mmHg 82%
    06:00 +1°C° 0.1 mm 2 mps 740 mmHg 84%
    07:00 +1°C° 0.1 mm 2 mps 740 mmHg 84%
    08:00 +2°C° 0.1 mm 2 mps 740 mmHg 84%
    09:00 +3°C° 0.1 mm 1 mps 740 mmHg 84%
    10:00 +3°C° 0 mm 2 mps 740 mmHg 82%
    11:00 +4°C° 0 mm 2 mps 741 mmHg 80%
    12:00 +4°C° 0 mm 3 mps 741 mmHg 78%
    13:00 +4°C° 0 mm 3 mps 741 mmHg 78%
    14:00 +4°C° 0 mm 3 mps 741 mmHg 78%
    15:00 +3°C° 0 mm 3 mps 742 mmHg 79%
    16:00 +4°C° 0 mm 2 mps 742 mmHg 81%
    17:00 +3°C° 0 mm 2 mps 743 mmHg 83%
    18:00 +3°C° 0 mm 1 mps 743 mmHg 85%
    19:00 +3°C° 0 mm 1 mps 744 mmHg 84%
    20:00 +3°C° 0 mm 1 mps 744 mmHg 83%
    21:00 +3°C° 0 mm 1 mps 744 mmHg 83%
    22:00 +3°C° 0.1 mm 2 mps 744 mmHg 84%
    23:00 +2°C° 0.1 mm 3 mps 744 mmHg 85%

    21 January, Sunday

    Time Temperature Precipitation Wind Pressure Humidity
    00:00 +2°C° 0.1 mm 3 mps 744 mmHg 86%
    01:00 +1°C° 0.9 mm 4 mps 743 mmHg 88%
    02:00 +2°C° 0.9 mm 5 mps 743 mmHg 91%
    03:00 +2°C° 0.9 mm 6 mps 742 mmHg 93%
    04:00 +3°C° 1 mm 6 mps 741 mmHg 94%
    05:00 +4°C° 1 mm 7 mps 741 mmHg 95%
    06:00 +6°C° 1 mm 7 mps 740 mmHg 96%
    07:00 +6°C° 0.2 mm 8 mps 740 mmHg 96%
    08:00 +7°C° 0.2 mm 8 mps 740 mmHg 95%
    09:00 +8°C° 0.2 mm 9 mps 740 mmHg 94%
    10:00 +10°C° 0.2 mm 9 mps 740 mmHg 94%
    11:00 +10°C° 0.2 mm 9 mps 740 mmHg 93%
    12:00 +9°C° 0.2 mm 10 mps 740 mmHg 93%
    13:00 +9°C° 0.5 mm 10 mps 739 mmHg 92%
    14:00 +9°C° 0.5 mm 10 mps 739 mmHg 92%
    15:00 +9°C° 0.5 mm 10 mps 739 mmHg 92%
    16:00 +9°C° 0.2 mm 10 mps 739 mmHg 93%
    17:00 +10°C° 0.2 mm 9 mps 739 mmHg 93%
    18:00 +10°C° 0.2 mm 9 mps 740 mmHg 94%
    19:00 +9°C° 0.1 mm 8 mps 740 mmHg 93%
    20:00 +9°C° 0.1 mm 7 mps 741 mmHg 93%
    21:00 +9°C° 0.1 mm 7 mps 741 mmHg 93%
    22:00 +8°C° 0 mm 6 mps 742 mmHg 93%
    23:00 +7°C° 0 mm 5 mps 742 mmHg 92%

    22 January, Monday

    Time Temperature Precipitation Wind Pressure Humidity
    00:00 +6°C° 0 mm 5 mps 743 mmHg 92%
    01:00 +5°C° 0 mm 4 mps 743 mmHg 91%
    02:00 +5°C° 0 mm 3 mps 744 mmHg 91%
    03:00 +4°C° 0 mm 3 mps 744 mmHg 91%
    04:00 +5°C° 0 mm 2 mps 744 mmHg 90%
    05:00 +4°C° 0 mm 2 mps 744 mmHg 89%
    06:00 +5°C° 0 mm 1 mps 745 mmHg 88%
    07:00 +5°C° 0 mm 1 mps 745 mmHg 89%
    08:00 +5°C° 0 mm 1 mps 745 mmHg 89%
    09:00 +4°C° 0 mm 1 mps 745 mmHg 89%
    10:00 +6°C° 0 mm 1 mps 745 mmHg 86%
    11:00 +6°C° 0 mm 2 mps 745 mmHg 82%
    12:00 +7°C° 0 mm 2 mps 744 mmHg 79%
    13:00 +7°C° 0 mm 3 mps 744 mmHg 81%
    14:00 +7°C° 0 mm 3 mps 743 mmHg 84%
    15:00 +6°C° 0 mm 4 mps 742 mmHg 86%
    16:00 +6°C° 1 mm 5 mps 741 mmHg 89%
    17:00 +7°C° 1 mm 5 mps 740 mmHg 92%
    18:00 +7°C° 1 mm 6 mps 739 mmHg 95%
    19:00 +8°C° 1.4 mm 7 mps 738 mmHg 95%
    20:00 +9°C° 1.4 mm 8 mps 738 mmHg 94%
    21:00 +10°C° 1.4 mm 8 mps 737 mmHg 94%
    22:00 +9°C° 0.1 mm 8 mps 737 mmHg 94%
    23:00 +8°C° 0.1 mm 9 mps 737 mmHg 93%
    Show more